Station 46088 (LLNR 16337) - NEW DUNGENESS - 17 NM NE of Port Angeles, WA Image indicating link to RSS feed of recent meteorological observations for station 46088

NOAA Environmental Lighted Buoy 46088


Conditions at 46088 as of
(4:40 am PDT)
1140 GMT on 04/14/2024:
     

Click on the graph icon in the table below to see a time series plot of the last five days of that observation.

5-day plot - Wind Direction Wind Direction (WDIR):WNW ( 290 deg true )
5-day plot - Wind Speed Wind Speed (WSPD): 5.8 kts
5-day plot - Wind Gust Wind Gust (GST): 7.8 kts
5-day plot - Atmospheric Pressure Atmospheric Pressure (PRES):29.98 in
5-day plot - Air Temperature Air Temperature (ATMP): 47.3 °F
5-day plot - Water Temperature Water Temperature (WTMP): 47.8 °F
5-day plot - Dew Point Dew Point (DEWP): 45.3 °F
5-day plot - Wind Chill Wind Chill (CHILL): 44.1 °F
5-day plot - Wind Speed at 10 Meters Wind Speed at 10 meters (WSPD10M): 5.8 kts
5-day plot - Wind Speed at 20 Meters Wind Speed at 20 meters (WSPD20M): 7.8 kts
5-day plot -  Wind Speed, Wind Gust and Atmospheric Pressure Combined plot of Wind Speed, Gust, and Air Pressure
Supplemental Measurements
Highest 1-minute Wind Speed
Time (PDT)5-day plot - 1-Minute Wind Speed WSPD 5-day plot - 1-Minute Wind Direction WDIR
4:37 am 5.8 kts-
Previous observations
TIME
(PDT)
5-day plot - Wind Direction
WDIR
 
5-day plot - Wind Speed
WSPD
kts
5-day plot - Wind Gust
GST
kts
5-day plot - Wave Height
WVHT
ft
5-day plot - Dominant Wave Period
DPD
sec
5-day plot - Average Wave Period
APD
sec
5-day plot - Mean Wave Direction
MWD
 
5-day plot - Atmospheric Pressure
PRES
in
5-day plot - Pressure Tendency
PTDY
in
5-day plot - Air Temperature
ATMP
°F
5-day plot - Water Temperature
WTMP
°F
5-day plot - Dew Point
DEWP
°F
5-day plot - Salinity
SAL
psu
5-day plot - Visibility
VIS
nmi
5-day plot - Tide (above MLLW)
TIDE
ft
2024-04-14 04:30 am W 5.8 5.8----29.98- 47.3 47.8 45.3---
2024-04-14 04:20 am W 5.8 5.8 0.3-3.0-29.98- 47.5 47.8 45.7---
2024-04-14 04:10 am W 5.8 5.8 0.3-3.0-29.98- 47.5 47.8 45.7---
2024-04-14 04:00 am W 5.8 7.8----29.98+0.01 47.7 48.2 45.9---
2024-04-14 03:50 am W 7.8 7.8 0.3-2.6-29.98- 47.8 48.6 46.0---
2024-04-14 03:40 am W 7.8 9.7 0.3-2.6-29.98- 47.8 48.4 46.0---
2024-04-14 03:30 amWSW 7.8 9.7----29.98- 48.0 48.4 46.2---
2024-04-14 03:20 am W 7.8 9.7 0.7-2.7-29.97- 47.8 48.4 46.0---
2024-04-14 03:10 amWSW 7.8 7.8 0.7-2.7-29.97- 47.8 48.4 46.0---
2024-04-14 03:00 amWSW 5.8 7.8----29.97+0.01 48.0 48.2 46.2---
2024-04-14 02:50 am W 5.8 7.8 0.7-2.8-29.97- 48.0 48.2 46.0---
2024-04-14 02:40 am W 5.8 7.8 0.7-2.8-29.98- 48.2 48.4 46.2---
2024-04-14 02:30 am W 7.8 7.8----29.97- 48.2 48.4 45.9---
2024-04-14 02:20 am W 7.8 9.7 0.7-2.5-29.97- 48.4 48.2 45.7---
2024-04-14 02:10 amWSW 7.8 9.7----29.97- 48.4 48.2 45.5---
2024-04-14 02:00 amWSW 9.7 11.7----29.97+0.00 48.4 48.0 45.3---
2024-04-14 01:50 amWSW 9.7 13.6 0.7-2.6-29.97- 48.6 48.0 45.3---
2024-04-14 01:40 am SW 9.7 11.7----29.96- 48.6 48.0 45.3---
2024-04-14 01:30 amWSW 9.7 11.7----29.96- 48.6 48.0 45.1---
2024-04-14 01:20 am SW 9.7 11.7 0.7-2.7-29.96- 48.7 48.0 45.1---
2024-04-14 01:10 am SW 9.7 11.7 0.7-2.7-29.96- 48.6 48.0 45.0---
2024-04-14 01:00 am SW 9.7 11.7----29.97+0.00 48.6 48.0 45.0---
2024-04-14 12:50 am SW 9.7 11.7 0.7-2.8-29.97- 48.6 48.0 45.1---
2024-04-14 12:40 amWSW 7.8 9.7 0.7-2.8-29.97- 48.6 48.0 45.1---
2024-04-14 12:30 amWSW 7.8 9.7----29.97- 48.6 48.0 45.0---
2024-04-14 12:20 amWSW 7.8 9.7 0.7-2.6-29.97- 48.7 48.0 45.1---
2024-04-14 12:10 amWSW 9.7 9.7 0.7-2.6-29.96- 48.7 48.2 45.0---
2024-04-14 12:00 amWSW 9.7 11.7----29.97+0.00 48.9 48.2 45.0---
2024-04-13 11:50 pmWSW 9.7 13.6 1.0 32.6WSW29.97- 48.9 48.2 45.0---
2024-04-13 11:40 pmWSW 11.7 13.6 1.0-2.6WSW29.97- 48.7 48.4 44.8---
2024-04-13 11:30 pmWSW 9.7 11.7----29.97- 48.7 48.4 45.0---
2024-04-13 11:20 pmWSW 11.7 13.6 1.0 22.5 W29.97- 48.7 48.4 45.3---
2024-04-13 11:10 pmWSW 11.7 13.6 1.0-2.5 W29.97- 48.7 48.6 45.5---
2024-04-13 11:00 pmWSW 11.7 13.6----29.97+0.03 48.7 48.6 45.7---
2024-04-13 10:50 pmWSW 11.7 13.6 0.7-2.8-29.97- 48.9 48.6 46.0---
2024-04-13 10:40 pmWSW 11.7 13.6----29.96- 49.1 48.6 46.0---
2024-04-13 10:30 pmWSW 11.7 13.6----29.96- 49.1 48.6 45.9---
2024-04-13 10:20 pmWSW 11.7 13.6 0.7-3.9-29.96- 49.1 48.7 45.7---
2024-04-13 10:10 pmWSW 11.7 13.6----29.96- 49.3 48.6 45.7---
2024-04-13 10:00 pmWSW 11.7 13.6----29.96+0.04 49.5 48.9 45.3---
2024-04-13 09:50 pmWSW 11.7 13.6 0.7-4.8-29.97- 49.6 48.4 45.0---
2024-04-13 09:40 pmWSW 13.6 15.5----29.97- 49.6 48.4 44.4---
2024-04-13 09:30 pmWSW 11.7 15.5----29.97- 49.6 48.4 44.1---
2024-04-13 09:20 pmWSW 11.7 13.6 0.7-4.8-29.97- 49.8 48.4 45.0---
2024-04-13 09:10 pmWSW 9.7 11.7 0.7-4.8-29.97- 49.8 48.4 45.3---
2024-04-13 09:00 pmWSW 5.8 9.7----29.97+0.03 50.2 48.6 45.5---
2024-04-13 08:50 pm W 3.9 5.8 0.7-5.2-29.96- 49.6 49.1 45.0---
2024-04-13 08:40 pm W 3.9 5.8 0.7-5.2-29.96- 49.3 49.1 45.7---
2024-04-13 08:30 pm W 3.9 5.8----29.96- 49.3 49.5 46.0---
2024-04-13 08:20 pm W 3.9 3.9 0.7-5.3-29.95- 49.5 49.5 46.0---
2024-04-13 08:10 pmWNW 3.9 3.9 0.7-5.3-29.95- 49.6 48.9 46.0---
2024-04-13 08:00 pmWNW 3.9 5.8----29.94+0.00 50.0 48.7 45.9---
2024-04-13 07:50 pmWNW 3.9 5.8 0.7-5.5-29.93- 50.2 48.9 45.3---
2024-04-13 07:40 pm W 1.9 3.9----29.93- 50.5 48.9 46.0---
2024-04-13 07:30 pm W 3.9 3.9----29.93- 50.9 49.3 46.2---
2024-04-13 07:20 pm W 3.9 3.9 0.7-5.0-29.92- 51.4 48.4 46.2---
2024-04-13 07:10 pm W 5.8 5.8 0.7-5.0-29.92- 51.6 48.4 45.1---
2024-04-13 07:00 pm SW 5.8 5.8----29.92-0.02 51.3 48.6 44.4---
2024-04-13 06:50 pm SW 5.8 5.8 1.0 75.9WSW29.92- 51.3 48.7 45.1---
2024-04-13 06:40 pmSSW 5.8 5.8----29.92- 51.8 49.1 44.1---
2024-04-13 06:30 pm S 3.9 5.8----29.92- 51.8 49.1 42.4---
2024-04-13 06:20 pmSSW 3.9 5.8 1.3 86.8WSW29.93- 51.8 48.7 42.3---
2024-04-13 06:10 pmSSW 3.9 3.9----29.93- 51.4 48.4 42.4---
2024-04-13 06:00 pmSSW 3.9 3.9----29.93-0.03 51.3 48.9 42.3---
2024-04-13 05:50 pmSSW 1.9 1.9 1.3 86.8WSW29.93- 51.8 49.8 45.0---
2024-04-13 05:40 pm SW 1.9 3.9----29.93- 52.2 49.5 45.7---
2024-04-13 05:30 pm SW 3.9 3.9----29.93- 51.4 50.0 45.1---
2024-04-13 05:20 pmSSW 3.9 3.9 1.3 96.0WSW29.93- 52.2 49.3 46.0---
2024-04-13 05:10 pmWSW 1.9 3.9----29.93- 52.2 49.1 45.7---
2024-04-13 05:00 pmWSW 1.9 3.9----29.93-0.04 52.0 50.7 45.7---
2024-04-13 04:50 pm SW 3.9 3.9 1.3 96.8WSW29.94- 51.8 50.4 45.5---
2024-04-13 04:40 pm SW 3.9 5.8----29.94- 52.0 50.4 45.7---
2024-04-13 04:20 pm S 1.9 3.9 1.3 107.4WSW29.94- 52.9 49.1 45.5---
2024-04-13 04:10 pmSSE 1.9 1.9 1.3-7.4WSW29.93- 52.5 49.1 44.1---
2024-04-13 04:00 pmSSW 1.9 1.9----29.94-0.05 52.2 49.1 44.1---
2024-04-13 03:50 pmWSW 1.9 1.9 1.3 107.5WSW29.95- 51.8 49.3 44.4---
2024-04-13 03:40 pmSSW 1.9 1.9 1.3-7.5WSW29.95- 51.4 49.3 44.8---
2024-04-13 03:30 pmSSW 3.9 3.9----29.95- 51.1 49.5 45.1---
2024-04-13 03:20 pm S 3.9 3.9 1.3 107.2WSW29.95- 51.6 49.3 45.3---
2024-04-13 03:10 pm S 1.9 1.9 1.3-7.2WSW29.96- 50.9 48.9 44.1---
2024-04-13 03:00 pm S 1.9 1.9----29.96-0.04 50.7 49.1 44.8---
2024-04-13 02:50 pm W 1.9 1.9 1.0 116.7 SW29.97- 50.0 49.1 44.4---
2024-04-13 02:40 pm NW 1.9 3.9----29.97- 49.8 49.1 44.1---
2024-04-13 02:30 pm N 1.9 3.9----29.97- 49.6 48.9 43.7---
2024-04-13 02:20 pmNNW 3.9 5.8 1.0 115.9 SW29.97- 49.6 49.1 43.7---
2024-04-13 02:10 pmNNW 5.8 7.8 1.0-5.9 SW29.98- 49.5 49.3 43.9---
2024-04-13 02:00 pmNNW 5.8 7.8----29.98-0.02 49.3 49.3 43.9---
2024-04-13 01:50 pmNNW 5.8 7.8 0.7-4.8-29.98- 49.3 48.7 43.9---
2024-04-13 01:40 pmNNW 5.8 7.8 0.7-4.8-29.98- 49.1 48.9 44.1---
2024-04-13 01:30 pmNNW 5.8 7.8----29.98- 49.1 48.9 44.1---
2024-04-13 01:20 pm N 5.8 7.8 0.7-3.6-29.99- 49.1 48.7 43.9---
2024-04-13 01:10 pm N 7.8 7.8 0.7-3.6-29.99- 49.1 48.9 43.7---
2024-04-13 01:00 pm N 7.8 9.7----29.99+0.00 49.1 48.7 43.5---
2024-04-13 12:50 pm N 7.8 9.7 0.7-3.1-29.99- 48.9 48.7 43.2---
2024-04-13 12:40 pmNNW 7.8 11.7----29.99- 48.9 48.6 43.0---
2024-04-13 12:30 pm N 7.8 11.7----30.00- 48.7 48.4 42.8---
2024-04-13 12:20 pm N 7.8 9.7 0.7-2.9-30.00- 48.7 48.4 43.0---
2024-04-13 12:10 pm N 7.8 11.7 0.7-2.9-30.00- 48.6 48.2 42.8---
2024-04-13 12:00 pm N 7.8 11.7----30.00+0.02 48.4 48.2 43.0---
2024-04-13 11:50 am N 7.8 11.7 0.7-2.6-30.00- 48.4 48.2 42.8---
2024-04-13 11:40 am N 7.8 9.7----30.00- 48.4 48.2 43.0---
2024-04-13 11:30 am N 9.7 11.7----30.00- 48.2 48.0 42.4---
2024-04-13 11:20 am N 9.7 13.6 1.0 32.6NNW30.00- 48.2 48.0 42.4---
2024-04-13 11:10 am N 9.7 11.7 1.0-2.6NNW30.00- 48.0 48.0 42.3---
2024-04-13 11:00 am N 9.7 13.6----30.00+0.02 48.0 48.2 42.3---
2024-04-13 10:50 am N 11.7 13.6 1.0 32.7NNW30.00- 48.0 48.2 42.3---
2024-04-13 10:40 am N 11.7 13.6----30.00- 47.8 48.4 41.9---
2024-04-13 10:30 am N 11.7 15.5----30.00- 47.8 48.2 41.7---
2024-04-13 10:20 am N 11.7 15.5 1.0 32.6NNW30.00- 47.8 48.2 41.5---
2024-04-13 10:10 am N 13.6 15.5----30.00- 47.7 48.2 41.0---
2024-04-13 10:00 am N 13.6 15.5----29.99+0.03 47.7 48.2 41.2---
2024-04-13 09:50 am N 13.6 15.5 1.0 32.6 N29.99- 47.5 48.2 41.0---
2024-04-13 09:40 am N 13.6 15.5 1.0-2.6 N29.99- 47.3 48.2 41.2---
2024-04-13 09:30 am N 13.6 17.5----29.99- 47.5 48.2 41.4---
2024-04-13 09:20 am N 15.5 19.4 0.7-2.5-29.99- 47.3 48.0 40.8---
2024-04-13 09:10 am N 13.6 19.4 0.7-2.5-29.98- 47.1 48.0 41.4---
2024-04-13 09:00 am N 9.7 15.5----29.98+0.04 46.8 48.0 41.5---
2024-04-13 08:50 am N 7.8 11.7 0.3-3.0-29.98- 46.6- 41.4---
2024-04-13 08:40 am N 9.7 11.7 0.3-3.0-29.98- 46.6 48.0 41.2---
2024-04-13 08:30 am N 9.7 11.7----29.98- 46.4 48.0 40.8---
2024-04-13 08:20 am N 9.7 11.7 0.3-4.5-29.98- 46.4 48.0 40.8---
2024-04-13 08:10 am N 9.7 11.7 0.3-4.5-29.98- 46.4 48.0 40.6---
2024-04-13 08:00 am N 9.7 9.7----29.97+0.03 46.6 48.0 40.8---
2024-04-13 07:50 am N 9.7 11.7 0.3-4.4-29.97- 46.8 48.0 40.8---
2024-04-13 07:40 am N 7.8 9.7----29.98- 46.8 48.0 41.2---
2024-04-13 07:30 amNNW 5.8 7.8----29.97- 46.8 48.0 41.0---
2024-04-13 07:20 amNNW 7.8 9.7 0.3-5.0-29.97- 46.8 48.2 40.8---
2024-04-13 07:10 amNNW 7.8 9.7 0.3-5.0-29.96- 46.8 48.2 41.2---
2024-04-13 07:00 amNNW 5.8 7.8----29.96+0.02 46.9 48.2 41.7---
2024-04-13 06:50 am N 5.8 9.7 0.3-4.7-29.96- 47.1 48.2 41.4---
2024-04-13 06:40 am N 7.8 11.7----29.96- 47.1 48.0 40.8---
2024-04-13 06:30 am N 9.7 9.7----29.95- 47.3 48.2 41.0---
2024-04-13 06:20 am N 7.8 9.7 0.3-4.7-29.95- 47.3 48.2 40.5---
2024-04-13 06:10 am N 7.8 9.7----29.95- 47.5 48.2 40.5---
2024-04-13 06:00 am N 7.8 9.7----29.95+0.02 47.5 48.0 40.3---
2024-04-13 05:50 am N 7.8 9.7 0.3-4.7-29.94- 47.5 48.0 40.6---
2024-04-13 05:40 amNNW 7.8 9.7 0.3-4.7-29.95- 47.5 48.0 40.6---
2024-04-13 05:30 amNNW 5.8 9.7----29.95- 47.1 48.0 41.0---
2024-04-13 05:20 am N 7.8 9.7 0.3-4.4-29.95- 46.2 48.0 41.5---
2024-04-13 05:10 amNNW 3.9 7.8 0.3-4.4-29.94- 45.9 48.0 43.7---
2024-04-13 05:00 amNNW 1.9 5.8----29.94+0.02 46.0 48.0 44.6---
2024-04-13 04:50 am SW 1.9 1.9 0.3-4.9-29.94- 46.2 48.0 45.0---

Detailed Wave Summary
for 46088 as of (4:10 am PDT)
1110 GMT on 04/14/2024:

These wave data are displayed in rounded times.

     

Click on the graph icon in the table below to see a time series plot of the last five days of that observation.

5-day plot - Significant Wave Height Significant Wave Height (WVHT): 0.3 ft
5-day plot - Average Wave Period Average Wave Period (APD): 3.0 sec
Previous observations
TIME
(PDT)
5-day plot - Wave Height
WVHT
ft
5-day plot - Swell Height
SwH
ft
5-day plot - Swell Period
SwP
sec
5-day plot - Swell Direction
SwD
 
5-day plot - Wind Wave Height
WWH
ft
5-day plot - Wind Wave Period
WWP
sec
5-day plot - Wind Wave Direction
WWD
 
5-day plot - Wave Steepness
STEEPNESS
 
5-day plot - Average Wave Period
APD
sec
2024-04-14 03:40 am 0.3------ N/A 2.6
2024-04-14 03:10 am 0.7------ N/A 2.7
2024-04-14 02:40 am 0.7------ N/A 2.8
2024-04-14 02:10 am 0.7------ N/A 2.5
2024-04-14 01:40 am 0.7------ N/A 2.6
2024-04-14 01:10 am 0.7------ N/A 2.7
2024-04-14 12:40 am 0.7------ N/A 2.8
2024-04-14 12:10 am 0.7------ N/A 2.6
2024-04-13 11:40 pm 1.0------ N/A 2.6
2024-04-13 11:10 pm 1.0------ N/A 2.5
2024-04-13 10:40 pm 0.7------ N/A 2.8
2024-04-13 10:10 pm 0.7------ N/A 3.9
2024-04-13 09:40 pm 0.7------ N/A 4.8
2024-04-13 09:10 pm 0.7------ N/A 4.8
2024-04-13 08:40 pm 0.7------ N/A 5.2
2024-04-13 08:10 pm 0.7------ N/A 5.3
2024-04-13 07:40 pm 0.7------ N/A 5.5
2024-04-13 07:10 pm 0.7------ N/A 5.0
2024-04-13 06:40 pm 1.0------ N/A 5.9
2024-04-13 06:10 pm 1.3------ N/A 6.8
2024-04-13 05:40 pm 1.3------ N/A 6.8
2024-04-13 05:10 pm 1.3------ N/A 6.0
2024-04-13 04:40 pm 1.3------ N/A 6.8
2024-04-13 04:10 pm 1.3------ N/A 7.4
2024-04-13 03:40 pm 1.3------ N/A 7.5
2024-04-13 03:10 pm 1.3------ N/A 7.2
2024-04-13 02:40 pm 1.0------ N/A 6.7
2024-04-13 02:10 pm 1.0------ N/A 5.9
2024-04-13 01:40 pm 0.7------ N/A 4.8
2024-04-13 01:10 pm 0.7------ N/A 3.6
2024-04-13 12:40 pm 0.7------ N/A 3.1
2024-04-13 12:10 pm 0.7------ N/A 2.9
2024-04-13 11:40 am 0.7------ N/A 2.6
2024-04-13 11:10 am 1.0------ N/A 2.6
2024-04-13 10:40 am 1.0------ N/A 2.7
2024-04-13 10:10 am 1.0------ N/A 2.6
2024-04-13 09:40 am 1.0------ N/A 2.6
2024-04-13 09:10 am 0.7------ N/A 2.5
2024-04-13 08:40 am 0.3------ N/A 3.0
2024-04-13 08:10 am 0.3------ N/A 4.5
2024-04-13 07:40 am 0.3------ N/A 4.4
2024-04-13 07:10 am 0.3------ N/A 5.0
2024-04-13 06:40 am 0.3------ N/A 4.7
2024-04-13 06:10 am 0.3------ N/A 4.7
2024-04-13 05:40 am 0.3------ N/A 4.7
2024-04-13 05:10 am 0.3------ N/A 4.4

Plot of wave energy versus frequency (and period)


Ocean Current Data for 46088

Unit of Measure:   Time Zone:   
4:40 am PDT 4:10 am PDT 3:40 am PDT 3:10 am PDT 2:40 am PDT 2:10 am PDT 1:40 am PDT 1:10 am PDT
Depth
ft
Dir
°
Speed
kts
Dir
°
Speed
kts
Dir
°
Speed
kts
Dir
°
Speed
kts
Dir
°
Speed
kts
Dir
°
Speed
kts
Dir
°
Speed
kts
Dir
°
Speed
kts
5 226 0.63201 0.91134 0.34----------

Previous 24 hours of ocean current data for 46088

Ocean Current Stick Plots are available in metric units only:

All Instruments - 1-day plot - ocean current 1-day plot     3-day plot - ocean current 3-day plot     5-day plot - ocean current 5-day plot